Flag for Aruba Weather past 2 weeks in Oranjestad, Aruba

Now
82 °F

Scattered clouds.


Feels Like: 88 °F
Forecast: 80 / 89 °F
Wind: 22 mph from East

Location: Queen Beatrix Airport - Aruba

Current Time: May 3, 2015 at 9:17:13 AM

Latest Report: May 3, 2015 at 8:00 AM


Visibility: N/A

Pressure: 29.86 "Hg

Humidity: 74%

Dew point: 73 °F

Location of OranjestadLocation

Historic Weather in Oranjestad — Graph

°F

Oranjestad temperature yesterday

Maximum temperature yesterday: 88 °F (at 12:00 PM)
Minimum temperature yesterday: 79 °F (at 12:00 AM)
Average temperature yesterday: 82 °F

Past Weeks' High & Low Weather Summary

 TemperatureHumidityPressure
High91 °F (Apr 26, 1:00 PM)89% (Apr 25, 8:00 PM)30.24 "Hg (Apr 25, 8:00 PM)
Low79 °F (Apr 21, 6:00 AM)59% (Apr 22, 12:00 PM)29.68 "Hg (Apr 28, 5:00 PM)
Average83 °F76%29.83 "Hg
* Reported Apr 18 8:00 AM — May 3 8:00 AM, Oranjestad, Weather by CustomWeather, © 2015

Note: Actual official high and low records may vary slightly from our data, if they occured in-between our weather recording intervals... More about our weather records

Advertising

Oranjestad weather history for previous 24 hours

 ConditionsComfort  
Time TempWeatherWind HumidityBarometerVisibility
8:00 AM
Sun, May 3
82 °FScattered clouds.22 mph74%29.86 "HgN/A
7:00 AM81 °FPassing clouds.17 mph79%29.83 "Hg6 mi
10:00 PM
Sat, May 2
81 °FPassing clouds.18 mph79%29.83 "Hg6 mi
9:00 PM81 °FPassing clouds.16 mph84%29.83 "Hg6 mi
8:00 PM81 °FPassing clouds.24 mph79%29.77 "Hg6 mi
7:00 PM81 °FPassing clouds.20 mph84%29.77 "Hg6 mi
6:00 PM82 °FPassing clouds.25 mph79%29.74 "HgN/A
5:00 PM84 °FScattered clouds.25 mph74%29.74 "HgN/A
4:00 PM86 °FScattered clouds.24 mph70%29.77 "HgN/A
3:00 PM88 °FPassing clouds.21 mph66%29.77 "HgN/A
2:00 PM88 °FPassing clouds.23 mph66%29.80 "HgN/A
1:00 PM88 °FPassing clouds.21 mph66%29.83 "HgN/A
12:00 PM88 °FScattered clouds.18 mph66%29.86 "HgN/A
11:00 AM86 °FScattered clouds.18 mph70%29.86 "HgN/A
10:00 AM86 °FScattered clouds.20 mph66%29.89 "HgN/A
9:00 AM84 °FPassing clouds.20 mph70%29.86 "HgN/A
Weather by CustomWeather, © 2015

See weather overviewHow to use our weather pages